Regional Weather Roundup
Issued by NWS

Home | Current Version | Previous Version | Text Only | Print | Product List | Glossary On
Versions: 1 2 3 4 5 6 7 8 9 10 11 12 13 14 15 16 17 18 19 20 21 22 23 24 25 26 27 28 29 30 31 32 33 34 35 36 37 38 39 40 41 42 43 44 45 46 47 48 49 50
931
ASUS45 KBOU 240607
RWRCO

WEATHER ROUNDUP FOR COLORADO
NATIONAL WEATHER SERVICE DENVER/BOULDER CO
1200 AM MDT SUN SEP 24 2017

NOTE: "FAIR" INDICATES FEW OR NO CLOUDS BELOW 12000 FEET WITH NO
SIGNIFICANT WEATHER AND/OR OBSTRUCTIONS TO VISIBILITY.

COZ001>005-013-030-031-240700-
...NORTHWEST COLORADO...

CITY           SKY/WX    TMP DP  RH WIND       PRES   REMARKS
CRAIG          FAIR      40  36  86 CALM      29.88F
HAYDEN         FAIR      42  38  85 E7        29.91F
MEEKER         FAIR      39  37  92 E3        29.87F
RABBIT EARS PA FAIR      32  30  93 S3        30.04F
STEAMBOAT SPGS FAIR      36  36  97 CALM      29.91F
WALDEN         FAIR      34  32  93 SE6       29.99F WCI  29
$$

COZ006>008-011-240700-
...WEST CENTRAL VALLEYS...

CITY           SKY/WX    TMP DP  RH WIND       PRES   REMARKS
GRAND JUNCTION FAIR      47  45  93 SW5       29.81S
MONTROSE       FAIR      45  42  89 NW6       29.87R
EAGLE          FAIR      38  36  92 CALM      29.95F
RIFLE          FAIR      44  41  89 VRB3      29.85F
DELTA          NOT AVBL
NUCLA          FAIR      46  41  81 E5        29.87S
$$

COZ017>023-064>068-240700-
...SOUTHWEST COLORADO...

CITY           SKY/WX    TMP DP  RH WIND       PRES   REMARKS
DURANGO        MOCLDY    43  43 100 CALM      29.92R
CORTEZ         FAIR      51  42  71 SW6       29.86S
PAGOSA SPRINGS FAIR      38  37  99 CALM      29.97F FOG
TELLURIDE      FAIR      42  32  67 CALM      29.99S
WOLF CREEK PAS CLOUDY    30  30 100 S10G20    30.16S FOG     WCI  21
$$

COZ009-010-012-014-032>034-037-058>063-240700-
...CENTRAL COLORADO...

CITY           SKY/WX    TMP DP  RH WIND       PRES   REMARKS
ASPEN          FAIR      34  32  92 CALM      29.93F
BUENA VISTA    FAIR      39  36  89 W5        29.98R
COPPER MTN     FAIR      36  21  55 MISG      30.12R
BERTHOUD PASS  FAIR      27  18  69 SE8       30.14R WCI  18
COTTONWOOD PAS FAIR      43  37  81 CALM      30.04S
GUNNISON       FAIR      38  34  85 NE5       29.96S
KREMMLING      FAIR      37  36  93 E3        29.98S
LEADVILLE      FAIR      32  30  92 CALM      30.02S
MONARCH PASS   FAIR      32  28  86 SW15      30.23R WCI  22
SALIDA         FAIR      47  43  88 CALM      30.04R
SUNLIGHT       FAIR      32  30  93 E5        30.06F WCI  27
WILKERSON PASS FAIR      34  32  93 S7        30.14R WCI  28
$$

COZ069>075-240700-
...SAN LUIS VALLEY/SANGRE DE CRISTO MOUNTAINS...

CITY           SKY/WX    TMP DP  RH WIND       PRES   REMARKS
ALAMOSA        FAIR      41  40  96 SW6       29.97R
DEL NORTE      FAIR      38  36  91 W9        29.99S
LA VETA PASS   SNOW      39  37  93 CALM      30.21R VSB<1/4
SAGUACHE       FAIR      39  37  93 CALM      29.99S
$$

COZ035-036-038>040-240700-
...NORTHERN COLORADO FRONT RANGE...

CITY           SKY/WX    TMP DP  RH WIND       PRES   REMARKS
DENVER INTL AP CLOUDY    45  43  93 E7        30.00R FOG
DMNS CITY PARK   N/A     45  44  98 E8G16     30.01R
AURORA         CLOUDY    44  44 100 E7        30.01R FOG
FRONT RANGE AP DRIZZLE   45  45 100 NE6       30.01R
ERIE MUNI ARPT CLOUDY    46  44  91 CALM      30.07R
BOULDER MUN AP CLOUDY    45  45 100 E3        30.00R FOG
CENTENNIAL     LGT RAIN  43  43 100 E5        30.01R FOG
BROOMFIELD     CLOUDY    45  43  93 CALM      30.02R
FORT COLLINS   CLOUDY    46  45  93 CALM      30.01R
LONGMONT       CLOUDY    48  46  91 CALM      30.02R FOG
$$

COZ041-046-047-076>085-087-088-240700-
...PIKES PEAK/PALMER DIVIDE AND SOUTHERN FOOTHILLS...

CITY           SKY/WX    TMP DP  RH WIND       PRES   REMARKS
COLO. SPRINGS  LGT RAIN  47  42  83 NW14      30.00R
A. F. ACADEMY  CLOUDY    43  41  93 NW13      30.00R
SCHRIEVER AFB  LGT RAIN  45  41  87 MISG      29.97S
CHEYENNE MTN   LGT RAIN  42  40  91 N18G28    29.93R
ELLICOTT       LGT RAIN N/A N/A N/A NE13      29.96R
FALCON         CLOUDY    42  40  96 N10G22    30.00F
FORT CARSON    LGT RAIN  47  42  82 N16G24    29.95R
LIMON            N/A    N/A N/A N/A MISG      29.96R
MONUMENT HILL  DRZL/FOG  37  37 100 NE7       30.03S VSB 3/4
CANON CITY     CLOUDY    52  48  87 SE10G17   29.94R
WALSENBURG     CLOUDY    48  46  93 N13       29.97R
TRINIDAD       LGT RAIN  53  50  90 E7        29.92R
$$

COZ042>045-048>051-090-091-240700-
...NORTHEAST COLORADO...

CITY           SKY/WX    TMP DP  RH WIND       PRES   REMARKS
GREELEY ARPT   CLOUDY    47  45  93 W3        30.00S
AKRON          CLOUDY    45  44  97 NE17G26   29.91F
BURLINGTON     LGT RAIN  50  48  93 NW24G35   29.93R
WRAY           HVY RAIN N/A N/A N/A N15G26    29.93R
YUMA           DRIZZLE   45  45 100 NW13      29.96R
STERLING       LGT RAIN  45  45 100 NE10G18   29.91F
HOLYOKE        RAIN      50  48  93 N16       29.92F
FORT MORGAN    DRIZZLE   46  44  93 W6        29.98R
$$

COZ086-089-092>099-240700-
...SOUTHEAST COLORADO...

CITY           SKY/WX    TMP DP  RH WIND       PRES   REMARKS
PUEBLO         LGT RAIN  51  46  83 N18       29.91F
LA JUNTA       RAIN      53  51  93 N10       29.92R
LAMAR          LGT RAIN  63  60  90 SW7       29.84F
SPRINGFIELD      N/A     60  60 100 S8        29.91F
$$




USA.gov is the U.S. government's official web portal to all federal, state and local government web resources and services.